Home   Weather   Kodiak   Past weeks

Flag for USA Past Weather in Kodiak, Alaska, USA — Yesterday and Last 2 Weeks

Now
61 °F

Scattered clouds.


Feels Like: 61 °F
Forecast: 54 / 64 °F
Wind: 5 mph from Southeast

Location: Kodiak Weather Reporting Station

Current Time: Aug 30, 2016 at 11:11:14 AM

Latest Report: Aug 30, 2016 at 9:53 AM


Visibility: 10 mi

Pressure: 30.01 "Hg

Humidity: 65%

Dew Point: 49 °F

Location of KodiakLocation

Past Weather in Kodiak — Graph

°F

Kodiak Temperature Yesterday

Maximum temperature yesterday: 77 °F (at 3:53 PM)
Minimum temperature yesterday: 61 °F (at 4:53 AM)
Average temperature yesterday: 68 °F

High & Low Weather Summary for the Past Weeks

 TemperatureHumidityPressure
High77 °F (Aug 29, 3:53 PM)100% (Aug 16, 3:53 AM)30.31 "Hg (Aug 16, 3:53 AM)
Low47 °F (Aug 20, 6:53 AM)33% (Aug 29, 4:53 PM)29.49 "Hg (Aug 22, 7:53 AM)
Average59 °F82%30.02 "Hg
* Reported Aug 15 9:53 AM — Aug 30 9:53 AM, Kodiak, Weather by CustomWeather, © 2016

Note: Actual official high and low records may vary slightly from our data, if they occured in-between our weather recording intervals... More about our weather records

Advertising

Kodiak Weather History for the Previous 24 Hours

Scroll right to see more
 ConditionsComfort  
Time TempWeatherWind HumidityBarometerVisibility
9:53 AM
Tue, Aug 30
61 °FScattered clouds.5 mph65%30.01 "Hg10 mi
8:53 AM63 °FSunny.6 mph56%30.01 "Hg10 mi
7:53 AM60 °FClear.9 mph60%30.00 "Hg10 mi
6:53 AM57 °FClear.9 mph67%29.99 "Hg10 mi
5:53 AM54 °FClear.7 mph77%30.00 "Hg10 mi
4:53 AM59 °FClear.9 mph67%30.00 "Hg10 mi
3:53 AM57 °FClear.8 mph74%30.00 "Hg10 mi
2:53 AM59 °FClear.8 mph69%29.99 "Hg10 mi
1:53 AM60 °FClear.9 mph67%29.98 "Hg10 mi
12:53 AM59 °FClear.8 mph69%29.98 "Hg10 mi
11:53 PM
Mon, Aug 29
61 °FClear.10 mph65%29.98 "Hg10 mi
10:53 PM63 °FClear.9 mph58%29.97 "Hg10 mi
9:53 PM65 °FSunny.10 mph56%29.96 "Hg10 mi
8:53 PM67 °FSunny.13 mph55%29.96 "Hg10 mi
7:53 PM71 °FSunny.7 mph45%29.94 "Hg10 mi
6:53 PM75 °FSunny.10 mph37%29.94 "Hg10 mi
5:53 PM75 °FSunny.9 mph40%29.94 "Hg10 mi
4:53 PM77 °FPassing clouds.9 mph33%29.94 "Hg10 mi
3:53 PM77 °FPassing clouds.13 mph35%29.95 "Hg10 mi
2:53 PM76 °FPassing clouds.10 mph35%29.96 "Hg10 mi
1:53 PM75 °FPassing clouds.10 mph36%29.97 "Hg10 mi
12:53 PM74 °FPassing clouds.14 mph38%29.98 "Hg10 mi
11:53 AM72 °FPassing clouds.15 mph43%29.98 "Hg10 mi
Weather by CustomWeather, © 2016

See weather overviewHow to use our weather pages